| time (UTC) | temp C | wind direction | speed KPH | gust KPH | rain 1hr cm | rain 24hr cm | rain mn cm | humidity % | barometer mb |
| 20260507004627 | 14 | 360 | 0.0 | 0.0 | 0.00 | 0.08 | 0.05 | 39 | 1019.1 |
| 20260507003122 | 15 | 360 | 0.0 | 0.0 | 0.00 | 0.08 | 0.05 | 36 | 1019.2 |
| 20260507003040 | 15 | 360 | 0.0 | 0.0 | 0.00 | 0.08 | 0.05 | 36 | 1019.2 |
| 20260507001844 | 16 | 329 | 3.2 | 8.0 | 0.00 | 0.08 | 0.05 | 33 | 1019.2 |
| 20260507001448 | 16 | 329 | 3.2 | 8.0 | 0.00 | 0.08 | 0.05 | 33 | 1019.2 |
| 20260506235859 | 16 | 328 | 1.6 | 1.6 | 0.00 | 0.08 | 0.05 | 34 | 1019.2 |
| 20260506234311 | 16 | 360 | 0.0 | 6.4 | 0.00 | 0.08 | 0.05 | 34 | 1019.4 |
| 20260506232724 | 16 | 328 | 1.6 | 4.8 | 0.00 | 0.08 | 0.05 | 33 | 1019.3 |
| 20260506231132 | 17 | 283 | 9.7 | 9.7 | 0.00 | 0.08 | 0.05 | 31 | 1019.3 |
| 20260506225544 | 17 | 347 | 1.6 | 11.3 | 0.00 | 0.08 | 0.05 | 32 | 1019.4 |
| 20260506223954 | 16 | 338 | 1.6 | 3.2 | 0.00 | 0.08 | 0.05 | 33 | 1019.4 |
| 20260506222406 | 16 | 360 | 0.0 | 0.0 | 0.00 | 0.08 | 0.05 | 32 | 1019.3 |
| 20260506220818 | 16 | 360 | 0.0 | 8.0 | 0.00 | 0.08 | 0.05 | 31 | 1019.6 |
| 20260506213638 | 17 | 350 | 6.4 | 11.3 | 0.00 | 0.08 | 0.05 | 32 | 1019.7 |
| 20260506213416 | 16 | 263 | 6.4 | 6.4 | 0.00 | 0.08 | 0.05 | 34 | 1019.8 |
| 20260506212049 | 16 | 263 | 6.4 | 6.4 | 0.00 | 0.08 | 0.05 | 34 | 1019.8 |
| 20260506210501 | 17 | 334 | 3.2 | 6.4 | 0.00 | 0.08 | 0.05 | 34 | 1020.2 |
| 20260506204911 | 16 | 220 | 1.6 | 20.9 | 0.00 | 0.08 | 0.05 | 34 | 1020.4 |
| 20260506203323 | 16 | 360 | 0.0 | 3.2 | 0.00 | 0.08 | 0.05 | 35 | 1020.6 |
| 20260506201733 | 16 | 350 | 3.2 | 6.4 | 0.00 | 0.08 | 0.05 | 34 | 1020.6 |
| 20260506194601 | 16 | 338 | 1.6 | 8.0 | 0.00 | 0.08 | 0.05 | 35 | 1021.1 |
| 20260506191417 | 16 | 81 | 1.6 | 12.9 | 0.00 | 0.08 | 0.05 | 31 | 1021.3 |
| 20260506185828 | 15 | 268 | 3.2 | 8.0 | 0.00 | 0.08 | 0.05 | 33 | 1021.2 |
| 20260506184240 | 16 | 98 | 1.6 | 11.3 | 0.00 | 0.08 | 0.05 | 34 | 1021.4 |
| 20260506182650 | 15 | 71 | 1.6 | 4.8 | 0.00 | 0.08 | 0.05 | 34 | 1021.5 |
| 20260506175513 | 15 | 355 | 1.6 | 12.9 | 0.00 | 0.08 | 0.05 | 37 | 1021.8 |
| 20260506173923 | 14 | 348 | 8.0 | 8.0 | 0.00 | 0.08 | 0.05 | 35 | 1021.9 |
| 20260506172334 | 14 | 326 | 1.6 | 9.7 | 0.00 | 0.10 | 0.05 | 38 | 1021.9 |
| 20260506170746 | 14 | 273 | 9.7 | 12.9 | 0.00 | 0.10 | 0.05 | 35 | 1022.0 |
| 20260506165156 | 15 | 338 | 4.8 | 4.8 | 0.00 | 0.10 | 0.05 | 41 | 1022.0 |
| 20260506163607 | 15 | 337 | 1.6 | 6.4 | 0.00 | 0.10 | 0.05 | 37 | 1021.9 |
| 20260506160429 | 14 | 338 | 3.2 | 4.8 | 0.00 | 0.10 | 0.05 | 39 | 1021.8 |
| 20260506154840 | 13 | 311 | 1.6 | 14.5 | 0.00 | 0.13 | 0.05 | 43 | 1021.5 |
| 20260506153251 | 13 | 36 | 4.8 | 6.4 | 0.00 | 0.13 | 0.05 | 44 | 1021.5 |
| 20260506151704 | 13 | 360 | 0.0 | 3.2 | 0.00 | 0.15 | 0.05 | 44 | 1021.5 |
| 20260506150113 | 13 | 360 | 3.2 | 3.2 | 0.00 | 0.15 | 0.05 | 48 | 1021.6 |
| 20260506144524 | 12 | 360 | 0.0 | 3.2 | 0.00 | 0.20 | 0.05 | 52 | 1021.6 |
| 20260506142935 | 11 | 338 | 1.6 | 4.8 | 0.00 | 0.25 | 0.05 | 59 | 1021.6 |
| 20260506141346 | 10 | 360 | 0.0 | 6.4 | 0.00 | 0.25 | 0.05 | 61 | 1021.4 |
| 20260506135757 | 10 | 360 | 0.0 | 0.0 | 0.00 | 0.33 | 0.05 | 66 | 1021.0 |
| 20260506134208 | 9 | 348 | 1.6 | 3.2 | 0.00 | 0.33 | 0.05 | 74 | 1020.9 |
| 20260506132619 | 8 | 274 | 1.6 | 3.2 | 0.00 | 0.48 | 0.05 | 80 | 1020.7 |
| 20260506125441 | 7 | 360 | 0.0 | 3.2 | 0.00 | 0.51 | 0.05 | 91 | 1020.3 |
| 20260506123852 | 7 | 360 | 0.0 | 1.6 | 0.00 | 0.51 | 0.05 | 94 | 1019.9 |
| 20260506122305 | 6 | 360 | 0.0 | 0.0 | 0.00 | 0.61 | 0.05 | 94 | 1019.7 |
| 20260506120715 | 6 | 360 | 0.0 | 0.0 | 0.00 | 0.61 | 0.05 | 93 | 1019.5 |
| 20260506115125 | 6 | 360 | 0.0 | 0.0 | 0.00 | 0.64 | 0.05 | 93 | 1018.9 |
| 20260506113541 | 6 | 360 | 0.0 | 0.0 | 0.00 | 0.64 | 0.05 | 92 | 1018.6 |
| 20260506111950 | 6 | 360 | 0.0 | 1.6 | 0.00 | 0.64 | 0.05 | 92 | 1018.5 |
| 20260506110400 | 7 | 360 | 0.0 | 0.0 | 0.00 | 0.64 | 0.05 | 91 | 1018.8 |
| 20260506104809 | 7 | 218 | 1.6 | 6.4 | 0.00 | 0.64 | 0.05 | 91 | 1018.7 |
| 20260506103221 | 7 | 360 | 0.0 | 3.2 | 0.00 | 0.64 | 0.05 | 90 | 1019.1 |
| 20260506101631 | 7 | 360 | 0.0 | 3.2 | 0.00 | 0.64 | 0.05 | 90 | 1019.0 |
| 20260506100042 | 7 | 360 | 0.0 | 4.8 | 0.00 | 0.64 | 0.05 | 91 | 1018.5 |
| 20260506094453 | 6 | 254 | 1.6 | 1.6 | 0.00 | 0.64 | 0.05 | 91 | 1018.4 |
| 20260506092908 | 7 | 360 | 0.0 | 0.0 | 0.00 | 0.64 | 0.05 | 91 | 1018.2 |
| 20260506091316 | 7 | 360 | 0.0 | 4.8 | 0.00 | 0.64 | 0.05 | 91 | 1018.1 |
| 20260506085729 | 7 | 360 | 0.0 | 3.2 | 0.00 | 0.64 | 0.05 | 90 | 1017.9 |
| 20260506084137 | 7 | 360 | 0.0 | 1.6 | 0.00 | 0.64 | 0.05 | 90 | 1018.0 |
| 20260506082549 | 7 | 238 | 3.2 | 6.4 | 0.00 | 0.64 | 0.05 | 91 | 1018.0 |
| 20260506081001 | 7 | 360 | 0.0 | 0.0 | 0.00 | 0.64 | 0.05 | 91 | 1017.5 |
| 20260506072234 | 7 | 360 | 0.0 | 0.0 | 0.00 | 0.64 | 0.05 | 89 | 1017.0 |
| 20260506070644 | 7 | 360 | 0.0 | 3.2 | 0.00 | 0.64 | 0.05 | 88 | 1016.6 |
| 20260506061917 | 7 | 360 | 0.0 | 3.2 | 0.05 | 0.64 | 0.05 | 87 | 1017.2 |
| 20260506060330 | 7 | 360 | 0.0 | 0.0 | 0.05 | 0.64 | 0.05 | 86 | 1017.5 |
| 20260506044422 | 9 | 276 | 3.2 | 8.0 | 0.00 | 0.56 | 0.56 | 69 | 1017.7 |
| 20260506042834 | 10 | 200 | 3.2 | 3.2 | 0.00 | 0.56 | 0.56 | 68 | 1017.0 |
| 20260506041245 | 9 | 269 | 1.6 | 11.3 | 0.00 | 0.56 | 0.56 | 71 | 1016.9 |
| 20260506035655 | 9 | 360 | 0.0 | 0.0 | 0.00 | 0.56 | 0.56 | 79 | 1016.7 |
| 20260506032517 | 10 | 360 | 0.0 | 1.6 | 0.00 | 0.56 | 0.56 | 70 | 1015.8 |
| 20260506025339 | 10 | 296 | 3.2 | 6.4 | 0.00 | 0.56 | 0.56 | 64 | 1015.0 |
| 20260506023750 | 10 | 360 | 0.0 | 3.2 | 0.00 | 0.56 | 0.56 | 66 | 1015.0 |
| 20260506022202 | 10 | 5 | 1.6 | 1.6 | 0.00 | 0.56 | 0.56 | 67 | 1014.7 |
| 20260506020612 | 10 | 360 | 0.0 | 6.4 | 0.00 | 0.56 | 0.56 | 67 | 1014.5 |
| 20260506015023 | 10 | 360 | 0.0 | 0.0 | 0.00 | 0.56 | 0.56 | 70 | 1014.1 |
| 20260506013436 | 11 | 360 | 0.0 | 0.0 | 0.00 | 0.56 | 0.56 | 65 | 1014.0 |
| 20260506011845 | 11 | 360 | 0.0 | 0.0 | 0.00 | 0.56 | 0.56 | 64 | 1013.7 |
| 20260506010257 | 11 | 360 | 0.0 | 0.0 | 0.00 | 0.56 | 0.56 | 65 | 1013.6 |
| 20260506004707 | 11 | 360 | 0.0 | 1.6 | 0.00 | 0.56 | 0.56 | 65 | 1013.5 |